Tracking 30995 objects as of 7-Jul-2025
HD Live streaming from Space Station
objects crossing your sky now

STARLINK-1210

Track STARLINK-1210 now!
10-day predictions
STARLINK-1210 is classified as:


NORAD ID: 45207
Int'l Code: 2020-012AF
Perigee: 463.0 km
Apogee: 472.6 km
Inclination: 53.0 °
Period: 93.8 minutes
Semi major axis: 6838 km
RCS: Unknown
Launch date: February 17, 2020
Source: United States (US)
Launch site: AIR FORCE EASTERN TEST RANGE (AFETR)
Your satellite tracking list
TIANQI 29
Track 1 satellite(s)




NASA's NSSDC Master Catalog

Two Line Element Set (TLE):
1 45207U 20012AF  25187.80282139  .00006063  00000-0  18636-3 0  9991
2 45207  53.0338  21.6939 0007041  45.7672 314.3906 15.35087175297528
Source of the keplerian elements: AFSPC